Flag for Australia Weather past 2 weeks in Traralgon, Victoria, Australia

Now
64 °F

Mild.


Feels Like: 64 °F
Forecast: 36 / 67 °F
Wind: 6 mph from East

Location: Latrobe Valley Airport

Current Time: Aug 22, 2014 at 4:21:46 PM

Latest Report: Aug 22, 2014 at 3:00 PM


Visibility: N/A

Pressure: 30.37 "Hg

Humidity: 49%

Dew point: 44 °F

Location of TraralgonLocation

Historic Weather in Traralgon — Graph

°F

Traralgon temperature yesterday

Maximum temperature yesterday: 59 °F (at 2:00 PM)
Minimum temperature yesterday: 43 °F (at 6:00 AM)
Average temperature yesterday: 50 °F

Past Weeks' High & Low Weather Summary

 TemperatureHumidityPressure
High64 °F (Aug 22, 3:00 PM)100% (Aug 8, 12:00 AM)30.60 "Hg (Aug 8, 12:00 AM)
Low33 °F (Aug 9, 6:00 AM)49% (Aug 22, 3:00 PM)30.02 "Hg (Aug 17, 2:00 PM)
Average48 °F88%30.34 "Hg
* Reported Aug 7 3:00 PM — Aug 22 3:00 PM, Traralgon, Weather by CustomWeather, © 2014

Note: Actual official high and low records may vary slightly from our data, if they occured in-between our weather recording intervals... More about our weather records

Advertising

Traralgon weather history for previous 24 hours

 ConditionsComfort  
Time TempWeatherWind HumidityBarometerVisibility
3:00 PM
Aug 22
64 °FMild.6 mph49%30.37 "HgN/A
2:00 PM63 °FMild.6 mph62%30.39 "HgN/A
12:00 PM57 °FCool.5 mph82%30.44 "HgN/A
11:00 AM52 °FCool.5 mph100%30.47 "HgN/A
9:00 AM46 °FLow clouds.No wind100%30.49 "Hg0 mi
8:00 AM44 °FQuite cool.2 mph100%30.48 "HgN/A
6:00 AM44 °FLow clouds.3 mph100%30.45 "Hg0 mi
5:00 AM46 °FCool.No wind100%30.44 "HgN/A
3:00 AM45 °FLow clouds.3 mph100%30.42 "Hg0 mi
2:00 AM44 °FQuite cool.3 mph100%30.43 "HgN/A
12:00 AM44 °FQuite cool.6 mph99%30.44 "Hg3 mi
11:00 PM
Aug 21
47 °FCool.3 mph99%30.45 "HgN/A
9:00 PM46 °FCool.3 mph99%30.45 "HgN/A
8:00 PM47 °FCool.5 mph98%30.44 "HgN/A
6:00 PM53 °FCool.7 mph82%30.40 "HgN/A
5:00 PM56 °FCool.12 mph72%30.38 "HgN/A
Weather by CustomWeather, © 2014

See weather overviewHow to use our weather pages